Pottstown, PA

11:38 AM EDT on September 22, 2017 (GMT -0400)
Pottstown Limerick

Weather History for KPTW - November, 2012

Change the Weather History Date:

Saturday, November 10, 2012

  Actual Average (KRDG) Record (KRDG)
Temperature  
Mean Temperature 44 °F -  
Max Temperature 57 °F 51 °F 74 °F (1985)
Min Temperature 32 °F 34 °F 21 °F (2003)
Degree Days  
Heating Degree Days 20    
Moisture  
Dew Point 35 °F    
Average Humidity 72    
Maximum Humidity 89    
Minimum Humidity 49    
Precipitation  
Precipitation 0.00 in - - ()
Sea Level Pressure  
Sea Level Pressure 30.33 in    
Wind  
Wind Speed 0 mph (East)    
Max Wind Speed 4 mph    
Max Gust Speed -    
Visibility 10 miles    
Events      
Averages and records for this station are not official NWS values.
T = Trace of Precipitation, MM = Missing Value Source: NWS Daily Summary

Daily Weather History Graph

Daily Weather History Graph

Search for Another Location

Airport or City:

Trip Planner

Search our weather history database for the weather conditions in past years. The results will help you decide how hot, cold, wet, or windy it might be!

Date:

Astronomy

Nov. 10, 2012 Rise Set
Actual Time 6:42 AM EST 4:49 PM EST
Civil Twilight 6:13 AM EST 5:18 PM EST
Nautical Twilight 5:41 AM EST 5:50 PM EST
Astronomical Twilight 5:09 AM EST 6:22 PM EST
Moon 2:44 AM EST (11/10) 2:35 PM EST (11/10)
Length of Visible Light 11h 04m
Length of Day
10h 06m
Waning Crescent, 14% of the Moon is Illuminated
Nov 10
Waning Crescent
Nov 13
New
Nov 20
First Quarter
Nov 28
Full
Dec 6
Last Quarter

Hourly Weather History & Observations

Time (EST) Temp. Dew Point Humidity Pressure Visibility Wind Dir Wind Speed Gust Speed Precip Events Conditions
12:54 AM 35.1 °F 30.9 °F 85% 30.25 in 10.0 mi Calm Calm - N/A   Clear
1:54 AM 34.0 °F 30.0 °F 85% 30.25 in 10.0 mi Calm Calm - N/A   Clear
2:54 AM 34.0 °F 30.0 °F 85% 30.26 in 10.0 mi Calm Calm - N/A   Clear
3:54 AM 33.1 °F 30.0 °F 89% 30.27 in 10.0 mi Calm Calm - N/A   Clear
4:54 AM 32.0 °F 28.9 °F 88% 30.29 in 10.0 mi Calm Calm - N/A   Clear
5:54 AM 33.1 °F 30.0 °F 89% 30.30 in 10.0 mi Calm Calm - N/A   Clear
7:54 AM 37.0 °F 33.1 °F 86% 30.34 in 10.0 mi Calm Calm - N/A   Clear
8:54 AM 42.1 °F 34.0 °F 73% 30.34 in 10.0 mi Calm Calm - N/A   Mostly Cloudy
9:54 AM 45.0 °F 37.9 °F 76% 30.35 in 10.0 mi Calm Calm - 0.00 in   Overcast
10:54 AM 48.9 °F 36.0 °F 61% 30.35 in 10.0 mi Calm Calm - N/A   Overcast
11:54 AM 53.1 °F 37.0 °F 55% 30.33 in 10.0 mi Calm Calm - N/A   Overcast
12:54 PM 55.9 °F 37.0 °F 49% 30.32 in 10.0 mi Calm Calm - N/A   Overcast
1:54 PM 55.9 °F 37.9 °F 51% 30.30 in 10.0 mi Calm Calm - N/A   Overcast
2:54 PM 55.9 °F 37.0 °F 49% 30.31 in 10.0 mi Calm Calm - N/A   Overcast
3:54 PM 57.0 °F 37.9 °F 49% 30.32 in 10.0 mi East 3.5 mph - N/A   Clear
4:54 PM 52.0 °F 39.0 °F 61% 30.33 in 10.0 mi Calm Calm - N/A   Scattered Clouds
5:54 PM 51.1 °F 37.9 °F 61% 30.35 in 10.0 mi Calm Calm - N/A   Mostly Cloudy
6:54 PM 48.0 °F 37.9 °F 68% 30.36 in 10.0 mi Calm Calm - N/A   Clear
7:54 PM 46.0 °F 37.9 °F 73% 30.38 in 10.0 mi Calm Calm - N/A   Clear
8:54 PM 44.1 °F 37.0 °F 76% 30.40 in 10.0 mi Calm Calm - N/A   Clear
9:54 PM 42.1 °F 37.0 °F 82% 30.41 in 8.0 mi Calm Calm - N/A   Clear
11:54 PM 42.1 °F 37.0 °F 82% 30.40 in 9.0 mi Calm Calm - N/A   Partly Cloudy